Time,TemperatureF,DewpointF,PressureIn,WindDirection,WindDirectionDegrees,WindSpeedMPH,WindSpeedGustMPH,Humidity,HourlyPrecipIn,Conditions,Clouds,dailyrainin,SoftwareType,DateUTC
2013-07-22 00:01:00,71.0,67.9,29.99,SSW,212,0.0,0.0,90,0.00,,,0.00,WeatherCatV1.15B25,2013-07-22 04:01:00,
2013-07-22 00:06:00,70.9,67.8,29.99,SSW,212,0.0,0.0,90,0.00,,,0.00,WeatherCatV1.15B25,2013-07-22 04:06:00,
2013-07-22 00:11:00,70.7,67.6,29.99,SSW,212,0.0,0.0,90,0.00,,,0.00,WeatherCatV1.15B25,2013-07-22 04:11:00,
2013-07-22 00:16:00,70.5,67.4,29.99,SSW,212,0.0,0.0,90,0.00,,,0.00,WeatherCatV1.15B25,2013-07-22 04:16:00,
2013-07-22 00:21:00,70.4,67.6,29.99,SSW,212,0.0,0.0,91,0.00,,,0.00,WeatherCatV1.15B25,2013-07-22 04:21:00,
2013-07-22 00:26:00,70.3,67.5,29.99,SSW,212,0.0,0.0,91,0.00,,,0.00,WeatherCatV1.15B25,2013-07-22 04:26:00,
2013-07-22 00:31:00,70.1,67.3,29.99,SSW,212,0.0,0.0,91,0.00,,,0.00,WeatherCatV1.15B25,2013-07-22 04:31:00,
2013-07-22 00:36:00,70.0,67.2,29.99,SSW,212,0.0,0.0,91,0.00,,,0.00,WeatherCatV1.15B25,2013-07-22 04:36:00,
2013-07-22 00:41:00,69.8,67.0,29.99,SSW,212,0.0,0.0,91,0.00,,,0.00,WeatherCatV1.15B25,2013-07-22 04:41:00,
2013-07-22 00:46:00,69.6,67.2,29.99,SSW,212,0.0,0.0,92,0.00,,,0.00,WeatherCatV1.15B25,2013-07-22 04:46:00,
2013-07-22 00:51:00,69.5,67.1,29.99,SSW,212,0.0,0.0,92,0.00,,,0.00,WeatherCatV1.15B25,2013-07-22 04:51:00,
2013-07-22 00:56:00,69.3,66.9,29.99,SSW,212,0.0,0.0,92,0.00,,,0.00,WeatherCatV1.15B25,2013-07-22 04:56:00,
2013-07-22 01:01:00,69.2,67.1,29.99,SSW,212,0.0,0.0,93,0.00,,,0.00,WeatherCatV1.15B25,2013-07-22 05:01:00,
2013-07-22 01:06:00,69.0,66.9,29.99,SSW,212,0.0,0.0,93,0.00,,,0.00,WeatherCatV1.15B25,2013-07-22 05:06:00,
2013-07-22 01:11:00,68.9,66.8,29.99,SSW,212,0.0,0.0,93,0.00,,,0.00,WeatherCatV1.15B25,2013-07-22 05:11:00,
2013-07-22 01:16:00,68.8,66.7,29.99,SSW,212,0.0,0.0,93,0.00,,,0.00,WeatherCatV1.15B25,2013-07-22 05:16:00,
2013-07-22 01:21:00,68.7,66.6,29.99,SSW,212,0.0,0.0,93,0.00,,,0.00,WeatherCatV1.15B25,2013-07-22 05:21:00,
2013-07-22 01:26:00,68.6,66.8,29.99,SSW,212,0.0,0.0,94,0.00,,,0.00,WeatherCatV1.15B25,2013-07-22 05:26:00,
2013-07-22 01:31:00,68.5,66.7,29.99,SSW,212,0.0,0.0,94,0.00,,,0.00,WeatherCatV1.15B25,2013-07-22 05:31:00,
2013-07-22 01:36:00,68.5,66.7,29.99,SSW,212,0.0,0.0,94,0.00,,,0.00,WeatherCatV1.15B25,2013-07-22 05:36:00,
2013-07-22 01:41:00,68.4,66.6,29.99,SSW,212,0.0,0.0,94,0.00,,,0.00,WeatherCatV1.15B25,2013-07-22 05:41:00,
2013-07-22 01:46:00,68.3,66.5,29.99,SSW,212,0.0,0.0,94,0.00,,,0.00,WeatherCatV1.15B25,2013-07-22 05:46:00,
2013-07-22 01:51:00,68.2,66.4,29.99,SSW,212,0.0,0.0,94,0.00,,,0.00,WeatherCatV1.15B25,2013-07-22 05:51:00,
2013-07-22 01:56:00,68.2,66.4,29.99,SSW,212,0.0,0.0,94,0.00,,,0.00,WeatherCatV1.15B25,2013-07-22 05:56:00,
2013-07-22 02:01:00,68.2,66.4,29.98,SSW,212,0.0,0.0,94,0.00,,,0.00,WeatherCatV1.15B25,2013-07-22 06:01:00,
2013-07-22 02:06:00,68.1,66.6,29.98,SSW,212,0.0,0.0,95,0.00,,,0.00,WeatherCatV1.15B25,2013-07-22 06:06:00,
2013-07-22 02:11:00,68.1,66.6,29.98,SSW,212,0.0,0.0,95,0.00,,,0.00,WeatherCatV1.15B25,2013-07-22 06:11:00,
2013-07-22 02:16:00,68.0,66.2,29.98,SSW,212,0.0,0.0,94,0.00,,,0.00,WeatherCatV1.15B25,2013-07-22 06:16:00,
2013-07-22 02:21:00,67.9,66.1,29.98,SSW,212,0.0,0.0,94,0.00,,,0.00,WeatherCatV1.15B25,2013-07-22 06:21:00,
2013-07-22 02:26:00,67.8,66.0,29.98,SSW,212,0.0,0.0,94,0.00,,,0.00,WeatherCatV1.15B25,2013-07-22 06:26:00,
2013-07-22 02:31:00,67.7,65.9,29.98,SSW,212,0.0,0.0,94,0.00,,,0.00,WeatherCatV1.15B25,2013-07-22 06:31:00,
2013-07-22 02:36:00,67.7,66.2,29.99,SSW,212,0.0,0.0,95,0.00,,,0.00,WeatherCatV1.15B25,2013-07-22 06:36:00,
2013-07-22 02:41:00,67.7,66.2,29.98,SSW,212,0.0,0.0,95,0.00,,,0.00,WeatherCatV1.15B25,2013-07-22 06:41:00,
2013-07-22 02:46:00,67.7,66.2,29.98,SSW,212,0.0,0.0,95,0.00,,,0.00,WeatherCatV1.15B25,2013-07-22 06:46:00,
2013-07-22 02:51:00,67.6,66.1,29.98,SSW,212,0.0,0.0,95,0.00,,,0.00,WeatherCatV1.15B25,2013-07-22 06:51:00,
2013-07-22 02:56:00,67.6,66.1,29.98,SSW,212,0.0,0.0,95,0.00,,,0.00,WeatherCatV1.15B25,2013-07-22 06:56:00,
2013-07-22 03:01:00,67.5,66.0,29.98,SSW,212,0.0,0.0,95,0.00,,,0.00,WeatherCatV1.15B25,2013-07-22 07:01:00,
2013-07-22 03:06:00,67.5,66.0,29.98,SSW,212,0.0,0.0,95,0.00,,,0.00,WeatherCatV1.15B25,2013-07-22 07:06:00,
2013-07-22 03:11:00,67.4,65.9,29.98,SSW,212,0.0,0.0,95,0.00,,,0.00,WeatherCatV1.15B25,2013-07-22 07:11:00,
2013-07-22 03:16:00,67.4,65.9,29.98,SSW,212,0.0,0.0,95,0.00,,,0.00,WeatherCatV1.15B25,2013-07-22 07:16:00,
2013-07-22 03:21:00,67.4,65.9,29.98,SSW,212,0.0,0.0,95,0.00,,,0.00,WeatherCatV1.15B25,2013-07-22 07:21:00,
2013-07-22 03:26:00,67.3,65.8,29.98,SSW,212,0.0,0.0,95,0.00,,,0.00,WeatherCatV1.15B25,2013-07-22 07:26:00,
2013-07-22 03:31:00,67.3,65.8,29.98,SSW,212,0.0,0.0,95,0.00,,,0.00,WeatherCatV1.15B25,2013-07-22 07:31:00,
2013-07-22 03:36:00,67.3,65.8,29.98,SSW,212,0.0,0.0,95,0.00,,,0.00,WeatherCatV1.15B25,2013-07-22 07:36:00,
2013-07-22 03:41:00,67.3,65.8,29.98,SSW,212,0.0,0.0,95,0.00,,,0.00,WeatherCatV1.15B25,2013-07-22 07:41:00,
2013-07-22 03:46:00,67.4,66.2,29.98,SSW,212,0.0,0.0,96,0.00,,,0.00,WeatherCatV1.15B25,2013-07-22 07:46:00,
2013-07-22 03:51:00,67.4,66.2,29.98,SSW,212,0.0,0.0,96,0.00,,,0.00,WeatherCatV1.15B25,2013-07-22 07:51:00,
2013-07-22 03:56:00,67.3,65.8,29.98,SSW,213,0.0,0.0,95,0.00,,,0.00,WeatherCatV1.15B25,2013-07-22 07:56:00,
2013-07-22 04:01:00,67.2,66.0,29.98,SSW,212,0.0,0.0,96,0.00,,,0.00,WeatherCatV1.15B25,2013-07-22 08:01:00,
2013-07-22 04:06:00,67.1,65.6,29.98,SSW,212,0.0,0.0,95,0.00,,,0.00,WeatherCatV1.15B25,2013-07-22 08:06:00,
2013-07-22 04:11:00,67.0,65.8,29.98,SSW,212,0.0,0.0,96,0.00,,,0.00,WeatherCatV1.15B25,2013-07-22 08:11:00,
2013-07-22 04:16:00,67.0,65.8,29.98,SSW,212,0.0,0.0,96,0.00,,,0.00,WeatherCatV1.15B25,2013-07-22 08:16:00,
2013-07-22 04:21:00,66.9,65.7,29.98,SSW,212,0.0,0.0,96,0.00,,,0.00,WeatherCatV1.15B25,2013-07-22 08:21:00,
2013-07-22 04:26:00,66.9,65.7,29.98,SSW,212,0.0,0.0,96,0.00,,,0.00,WeatherCatV1.15B25,2013-07-22 08:26:00,
2013-07-22 04:31:00,66.8,65.6,29.98,SSW,212,0.0,0.0,96,0.00,,,0.00,WeatherCatV1.15B25,2013-07-22 08:31:00,
2013-07-22 04:36:00,66.8,65.6,29.98,SSW,212,0.0,0.0,96,0.00,,,0.00,WeatherCatV1.15B25,2013-07-22 08:36:00,
2013-07-22 04:41:00,66.7,65.5,29.98,SSW,212,0.0,0.0,96,0.00,,,0.00,WeatherCatV1.15B25,2013-07-22 08:41:00,
2013-07-22 04:46:00,66.6,65.4,29.99,SSW,212,0.0,0.0,96,0.00,,,0.00,WeatherCatV1.15B25,2013-07-22 08:46:00,
2013-07-22 04:51:00,66.6,65.4,29.99,SSW,212,0.0,0.0,96,0.00,,,0.00,WeatherCatV1.15B25,2013-07-22 08:51:00,
2013-07-22 04:56:00,66.6,65.4,29.99,SSW,212,0.0,0.0,96,0.00,,,0.00,WeatherCatV1.15B25,2013-07-22 08:56:00,
2013-07-22 05:01:00,66.7,65.5,29.99,SSW,212,0.0,0.0,96,0.00,,,0.00,WeatherCatV1.15B25,2013-07-22 09:01:00,
2013-07-22 05:06:00,66.6,65.4,29.99,SSW,212,0.0,0.0,96,0.00,,,0.00,WeatherCatV1.15B25,2013-07-22 09:06:00,
2013-07-22 05:11:00,66.5,65.3,29.99,SSW,212,0.0,0.0,96,0.00,,,0.00,WeatherCatV1.15B25,2013-07-22 09:11:00,
2013-07-22 05:16:00,66.5,65.3,29.99,SSW,212,0.0,0.0,96,0.00,,,0.00,WeatherCatV1.15B25,2013-07-22 09:16:00,
2013-07-22 05:21:00,66.5,65.3,29.99,SSW,212,0.0,0.0,96,0.00,,,0.00,WeatherCatV1.15B25,2013-07-22 09:21:00,
2013-07-22 05:26:00,66.4,65.2,29.99,SSW,212,0.0,0.0,96,0.00,,,0.00,WeatherCatV1.15B25,2013-07-22 09:26:00,
2013-07-22 05:31:00,66.6,65.4,30.00,SSW,212,0.0,0.0,96,0.00,,,0.00,WeatherCatV1.15B25,2013-07-22 09:31:00,
2013-07-22 05:36:00,66.5,65.3,30.00,SSW,212,0.0,0.0,96,0.00,,,0.00,WeatherCatV1.15B25,2013-07-22 09:36:00,
2013-07-22 05:41:00,66.5,65.3,30.00,SSW,212,0.0,0.0,96,0.00,,,0.00,WeatherCatV1.15B25,2013-07-22 09:41:00,
2013-07-22 05:46:00,66.5,65.3,30.00,SSW,212,0.0,0.0,96,0.00,,,0.00,WeatherCatV1.15B25,2013-07-22 09:46:00,
2013-07-22 05:51:00,66.7,65.8,29.99,SSW,212,0.0,0.0,97,0.00,,,0.00,WeatherCatV1.15B25,2013-07-22 09:51:00,
2013-07-22 05:56:00,66.8,65.9,30.00,SSW,212,0.0,0.0,97,0.00,,,0.00,WeatherCatV1.15B25,2013-07-22 09:56:00,
2013-07-22 06:01:00,66.9,66.0,30.00,SSW,212,0.0,0.0,97,0.00,,,0.00,WeatherCatV1.15B25,2013-07-22 10:01:00,
2013-07-22 06:06:00,66.9,66.0,30.00,SSW,212,0.0,0.0,97,0.00,,,0.00,WeatherCatV1.15B25,2013-07-22 10:06:00,
2013-07-22 06:11:00,66.9,66.0,30.00,SSW,212,0.0,0.0,97,0.00,,,0.00,WeatherCatV1.15B25,2013-07-22 10:11:00,
2013-07-22 06:16:00,66.9,66.0,30.00,SSW,212,0.0,0.0,97,0.00,,,0.00,WeatherCatV1.15B25,2013-07-22 10:16:00,
2013-07-22 06:21:00,66.9,66.0,30.00,SSW,212,0.0,0.0,97,0.00,,,0.00,WeatherCatV1.15B25,2013-07-22 10:21:00,
2013-07-22 06:26:00,67.1,66.2,30.00,SSW,212,0.0,0.0,97,0.00,,,0.00,WeatherCatV1.15B25,2013-07-22 10:26:00,
2013-07-22 06:31:00,67.5,66.6,30.00,SSW,212,0.0,0.0,97,0.00,,,0.00,WeatherCatV1.15B25,2013-07-22 10:31:00,
2013-07-22 06:36:00,68.0,67.1,30.00,SSW,212,0.0,0.0,97,0.00,,,0.00,WeatherCatV1.15B25,2013-07-22 10:36:00,
2013-07-22 06:41:00,68.3,67.4,30.00,SSW,212,0.0,0.0,97,0.00,,,0.00,WeatherCatV1.15B25,2013-07-22 10:41:00,
2013-07-22 06:46:00,69.0,67.8,30.00,SSW,212,0.0,0.0,96,0.00,,,0.00,WeatherCatV1.15B25,2013-07-22 10:46:00,
2013-07-22 06:51:00,69.8,68.3,30.00,SSW,212,0.0,0.0,95,0.00,,,0.00,WeatherCatV1.15B25,2013-07-22 10:51:00,
2013-07-22 06:56:00,70.6,68.8,30.00,SSW,212,0.0,0.0,94,0.00,,,0.00,WeatherCatV1.15B25,2013-07-22 10:56:00,
2013-07-22 07:01:00,71.8,69.0,30.00,SSW,212,0.0,0.0,91,0.00,,,0.00,WeatherCatV1.15B25,2013-07-22 11:01:00,
2013-07-22 07:06:00,72.6,69.2,30.00,SSW,198,0.0,0.0,89,0.00,,,0.00,WeatherCatV1.15B25,2013-07-22 11:06:00,
2013-07-22 07:11:00,73.1,69.3,30.00,SSW,198,0.0,0.0,88,0.00,,,0.00,WeatherCatV1.15B25,2013-07-22 11:11:00,
2013-07-22 07:16:00,73.6,69.5,30.00,SSW,198,0.0,0.0,87,0.00,,,0.00,WeatherCatV1.15B25,2013-07-22 11:16:00,
2013-07-22 07:21:00,74.3,69.8,30.00,SSW,198,0.0,0.0,86,0.00,,,0.00,WeatherCatV1.15B25,2013-07-22 11:21:00,
2013-07-22 07:26:00,74.7,69.5,30.00,SSW,197,0.0,0.0,84,0.00,,,0.00,WeatherCatV1.15B25,2013-07-22 11:26:00,
2013-07-22 07:31:00,75.5,69.6,30.00,SW,229,1.0,1.0,82,0.00,,,0.00,WeatherCatV1.15B25,2013-07-22 11:31:00,
2013-07-22 07:36:00,75.8,69.2,30.00,SSE,156,0.0,1.0,80,0.00,,,0.00,WeatherCatV1.15B25,2013-07-22 11:36:00,
2013-07-22 07:41:00,76.4,69.4,30.00,SSE,155,0.0,0.0,79,0.00,,,0.00,WeatherCatV1.15B25,2013-07-22 11:41:00,
2013-07-22 07:46:00,77.0,70.0,30.00,NE,48,0.0,0.0,79,0.00,,,0.00,WeatherCatV1.15B25,2013-07-22 11:46:00,
2013-07-22 07:51:00,77.1,69.3,30.00,SSW,204,0.0,1.0,77,0.00,,,0.00,WeatherCatV1.15B25,2013-07-22 11:51:00,
2013-07-22 07:56:00,77.4,70.0,30.00,SE,126,0.0,0.0,78,0.00,,,0.00,WeatherCatV1.15B25,2013-07-22 11:56:00,
2013-07-22 08:01:00,77.6,69.8,30.00,SE,136,0.0,1.0,77,0.00,,,0.00,WeatherCatV1.15B25,2013-07-22 12:01:00,
2013-07-22 08:06:00,76.9,69.5,30.00,SW,219,1.0,2.0,78,0.00,,,0.00,WeatherCatV1.15B25,2013-07-22 12:06:00,
2013-07-22 08:11:00,76.3,69.3,30.00,SW,235,0.0,1.0,79,0.00,,,0.00,WeatherCatV1.15B25,2013-07-22 12:11:00,
2013-07-22 08:16:00,76.2,69.2,30.00,SSW,210,0.0,0.0,79,0.00,,,0.00,WeatherCatV1.15B25,2013-07-22 12:16:00,
2013-07-22 08:21:00,76.5,69.5,30.00,SSW,210,0.0,0.0,79,0.00,,,0.00,WeatherCatV1.15B25,2013-07-22 12:21:00,
2013-07-22 08:26:00,76.6,69.6,30.01,West,273,1.0,3.0,79,0.00,,,0.00,WeatherCatV1.15B25,2013-07-22 12:26:00,
2013-07-22 08:31:00,76.6,69.6,30.01,North,352,0.0,2.0,79,0.00,,,0.00,WeatherCatV1.15B25,2013-07-22 12:31:00,
2013-07-22 08:36:00,77.1,70.1,30.01,North,351,0.0,0.0,79,0.00,,,0.00,WeatherCatV1.15B25,2013-07-22 12:36:00,
2013-07-22 08:41:00,77.7,70.3,30.01,South,170,0.0,0.0,78,0.00,,,0.00,WeatherCatV1.15B25,2013-07-22 12:41:00,
2013-07-22 08:46:00,78.9,70.7,30.01,NW,323,1.0,1.0,76,0.00,,,0.00,WeatherCatV1.15B25,2013-07-22 12:46:00,
2013-07-22 08:51:00,79.8,71.1,30.01,SSW,212,2.0,3.0,75,0.00,,,0.00,WeatherCatV1.15B25,2013-07-22 12:51:00,
2013-07-22 08:56:00,79.6,70.2,30.01,East,100,0.0,1.0,73,0.00,,,0.00,WeatherCatV1.15B25,2013-07-22 12:56:00,
2013-07-22 09:01:00,80.2,70.3,30.01,ESE,105,0.0,0.0,72,0.00,,,0.00,WeatherCatV1.15B25,2013-07-22 13:01:00,
2013-07-22 09:06:00,80.3,69.6,30.01,East,99,0.0,1.0,70,0.00,,,0.00,WeatherCatV1.15B25,2013-07-22 13:06:00,
2013-07-22 09:11:00,79.9,69.6,30.01,SSW,213,1.0,1.0,71,0.00,,,0.00,WeatherCatV1.15B25,2013-07-22 13:11:00,
2013-07-22 09:16:00,79.6,69.8,30.01,South,174,0.0,0.0,72,0.00,,,0.00,WeatherCatV1.15B25,2013-07-22 13:16:00,
2013-07-22 09:21:00,80.1,70.2,30.01,NNW,343,0.0,2.0,72,0.00,,,0.00,WeatherCatV1.15B25,2013-07-22 13:21:00,
2013-07-22 09:26:00,80.7,71.2,30.01,SW,215,1.0,1.0,73,0.00,,,0.00,WeatherCatV1.15B25,2013-07-22 13:26:00,
2013-07-22 09:31:00,81.1,70.4,30.01,SW,235,0.0,1.0,70,0.00,,,0.00,WeatherCatV1.15B25,2013-07-22 13:31:00,
2013-07-22 09:36:00,81.5,69.5,30.01,West,262,1.0,2.0,67,0.00,,,0.00,WeatherCatV1.15B25,2013-07-22 13:36:00,
2013-07-22 09:41:00,81.2,69.6,30.01,East,97,2.0,2.0,68,0.00,,,0.00,WeatherCatV1.15B25,2013-07-22 13:41:00,
2013-07-22 09:46:00,80.8,69.2,30.01,WSW,243,0.0,4.0,68,0.00,,,0.00,WeatherCatV1.15B25,2013-07-22 13:46:00,
2013-07-22 09:51:00,80.5,68.5,30.01,ENE,57,1.0,1.0,67,0.00,,,0.00,WeatherCatV1.15B25,2013-07-22 13:51:00,
2013-07-22 09:54:00,80.6,68.6,30.01,ENE,72,3.0,5.0,67,0.00,,,0.00,WeatherCatV1.15B25,2013-07-22 13:54:00,
2013-07-22 09:59:00,80.0,68.9,30.01,SSW,198,0.0,4.0,69,0.00,,,0.00,WeatherCatV1.15B25,2013-07-22 13:59:00,
2013-07-22 10:04:00,80.6,69.9,30.01,SW,219,1.0,2.0,70,0.00,,,0.00,WeatherCatV1.15B25,2013-07-22 14:04:00,
2013-07-22 10:09:00,81.4,70.2,30.01,SE,142,0.0,5.0,69,0.00,,,0.00,WeatherCatV1.15B25,2013-07-22 14:09:00,
2013-07-22 10:14:00,81.1,68.6,30.02,NNE,31,0.0,3.0,66,0.00,,,0.00,WeatherCatV1.15B25,2013-07-22 14:14:00,
2013-07-22 10:19:00,80.5,69.4,30.02,WSW,238,1.0,3.0,69,0.00,,,0.00,WeatherCatV1.15B25,2013-07-22 14:19:00,
2013-07-22 10:24:00,80.1,68.6,30.02,West,259,1.0,3.0,68,0.00,,,0.00,WeatherCatV1.15B25,2013-07-22 14:24:00,
2013-07-22 10:29:00,79.6,68.5,30.02,NNE,20,1.0,5.0,69,0.00,,,0.00,WeatherCatV1.15B25,2013-07-22 14:29:00,
2013-07-22 10:34:00,79.4,69.6,30.02,SW,236,3.0,3.0,72,0.00,,,0.00,WeatherCatV1.15B25,2013-07-22 14:34:00,
2013-07-22 10:39:00,79.4,69.2,30.02,SSW,207,1.0,3.0,71,0.00,,,0.00,WeatherCatV1.15B25,2013-07-22 14:39:00,
2013-07-22 10:44:00,79.1,68.9,30.02,North,9,1.0,4.0,71,0.00,,,0.00,WeatherCatV1.15B25,2013-07-22 14:44:00,
2013-07-22 10:49:00,79.3,69.1,30.02,ENE,75,1.0,2.0,71,0.00,,,0.00,WeatherCatV1.15B25,2013-07-22 14:49:00,
2013-07-22 10:54:00,79.1,68.9,30.02,South,188,4.0,4.0,71,0.00,,,0.00,WeatherCatV1.15B25,2013-07-22 14:54:00,
2013-07-22 10:59:00,79.5,68.4,30.02,WNW,295,1.0,3.0,69,0.00,,,0.00,WeatherCatV1.15B25,2013-07-22 14:59:00,
2013-07-22 11:04:00,79.4,68.3,30.02,East,82,1.0,3.0,69,0.00,,,0.00,WeatherCatV1.15B25,2013-07-22 15:04:00,
2013-07-22 11:09:00,79.4,67.5,30.02,NE,46,2.0,5.0,67,0.00,,,0.00,WeatherCatV1.15B25,2013-07-22 15:09:00,
2013-07-22 11:14:00,79.7,69.0,30.02,ENE,70,2.0,2.0,70,0.00,,,0.00,WeatherCatV1.15B25,2013-07-22 15:14:00,
2013-07-22 11:19:00,80.5,69.4,30.02,NE,37,2.0,5.0,69,0.00,,,0.00,WeatherCatV1.15B25,2013-07-22 15:19:00,
2013-07-22 11:24:00,80.6,68.6,30.02,NW,323,0.0,3.0,67,0.00,,,0.00,WeatherCatV1.15B25,2013-07-22 15:24:00,
2013-07-22 11:29:00,80.4,68.8,30.01,ENE,77,2.0,6.0,68,0.00,,,0.00,WeatherCatV1.15B25,2013-07-22 15:29:00,
2013-07-22 11:34:00,81.0,70.3,30.01,SSE,167,0.0,2.0,70,0.00,,,0.00,WeatherCatV1.15B25,2013-07-22 15:34:00,
2013-07-22 11:39:00,81.4,69.8,30.01,SW,233,3.0,3.0,68,0.00,,,0.00,WeatherCatV1.15B25,2013-07-22 15:39:00,
2013-07-22 11:44:00,81.9,69.8,30.01,North,8,2.0,3.0,67,0.00,,,0.00,WeatherCatV1.15B25,2013-07-22 15:44:00,
2013-07-22 11:49:00,81.9,69.8,30.01,SW,217,1.0,5.0,67,0.00,,,0.00,WeatherCatV1.15B25,2013-07-22 15:49:00,
2013-07-22 11:54:00,81.8,68.9,30.01,SSW,198,0.0,6.0,65,0.00,,,0.00,WeatherCatV1.15B25,2013-07-22 15:54:00,
2013-07-22 11:59:00,81.6,69.1,30.01,East,94,1.0,4.0,66,0.00,,,0.00,WeatherCatV1.15B25,2013-07-22 15:59:00,
2013-07-22 12:04:00,81.6,70.4,30.01,SSW,208,2.0,2.0,69,0.00,,,0.00,WeatherCatV1.15B25,2013-07-22 16:04:00,
2013-07-22 12:09:00,82.2,69.7,30.00,SW,226,2.0,4.0,66,0.00,,,0.00,WeatherCatV1.15B25,2013-07-22 16:09:00,
2013-07-22 12:14:00,82.2,69.7,30.00,North,8,2.0,4.0,66,0.00,,,0.00,WeatherCatV1.15B25,2013-07-22 16:14:00,
2013-07-22 12:19:00,81.6,69.1,30.00,ENE,62,2.0,5.0,66,0.00,,,0.00,WeatherCatV1.15B25,2013-07-22 16:19:00,
2013-07-22 12:24:00,81.6,69.1,30.00,NE,44,1.0,4.0,66,0.00,,,0.00,WeatherCatV1.15B25,2013-07-22 16:24:00,
2013-07-22 12:29:00,81.9,69.4,30.00,ENE,57,4.0,5.0,66,0.00,,,0.00,WeatherCatV1.15B25,2013-07-22 16:29:00,
2013-07-22 12:34:00,81.8,68.9,30.00,NE,50,1.0,2.0,65,0.00,,,0.00,WeatherCatV1.15B25,2013-07-22 16:34:00,
2013-07-22 12:39:00,81.8,69.3,29.99,West,271,0.0,2.0,66,0.00,,,0.00,WeatherCatV1.15B25,2013-07-22 16:39:00,
2013-07-22 12:44:00,82.2,69.7,29.99,WSW,246,2.0,3.0,66,0.00,,,0.00,WeatherCatV1.15B25,2013-07-22 16:44:00,
2013-07-22 12:49:00,82.2,68.8,29.99,SW,217,1.0,3.0,64,0.00,,,0.00,WeatherCatV1.15B25,2013-07-22 16:49:00,
2013-07-22 12:54:00,81.8,69.3,29.99,NNW,337,0.0,3.0,66,0.00,,,0.00,WeatherCatV1.15B25,2013-07-22 16:54:00,
2013-07-22 12:59:00,82.1,68.7,29.99,NE,44,2.0,3.0,64,0.00,,,0.00,WeatherCatV1.15B25,2013-07-22 16:59:00,
2013-07-22 13:04:00,82.5,69.1,29.99,SW,219,3.0,5.0,64,0.00,,,0.00,WeatherCatV1.15B25,2013-07-22 17:04:00,
2013-07-22 13:09:00,82.4,69.0,29.99,NW,326,1.0,5.0,64,0.00,,,0.00,WeatherCatV1.15B25,2013-07-22 17:09:00,
2013-07-22 13:14:00,82.7,69.3,29.99,East,95,1.0,4.0,64,0.00,,,0.00,WeatherCatV1.15B25,2013-07-22 17:14:00,
2013-07-22 13:19:00,82.3,68.4,29.99,ENE,78,2.0,4.0,63,0.00,,,0.00,WeatherCatV1.15B25,2013-07-22 17:19:00,
2013-07-22 13:24:00,82.0,68.6,29.99,NW,307,0.0,5.0,64,0.00,,,0.00,WeatherCatV1.15B25,2013-07-22 17:24:00,
2013-07-22 13:29:00,82.4,69.4,29.98,South,176,2.0,3.0,65,0.00,,,0.00,WeatherCatV1.15B25,2013-07-22 17:29:00,
2013-07-22 13:34:00,83.2,70.2,29.98,NE,54,1.0,4.0,65,0.00,,,0.00,WeatherCatV1.15B25,2013-07-22 17:34:00,
2013-07-22 13:35:00,83.2,69.3,29.98,WNW,294,0.0,4.0,63,0.00,,,0.00,WeatherCatV1.15B25,2013-07-22 17:35:00,
2013-07-22 13:40:00,82.4,68.5,29.98,East,98,2.0,6.0,63,0.00,,,0.00,WeatherCatV1.15B25,2013-07-22 17:40:00,
2013-07-22 13:45:00,82.1,68.7,29.98,SW,218,4.0,4.0,64,0.00,,,0.00,WeatherCatV1.15B25,2013-07-22 17:45:00,
2013-07-22 13:50:00,81.8,68.9,29.98,NE,39,4.0,8.0,65,0.00,,,0.00,WeatherCatV1.15B25,2013-07-22 17:50:00,
2013-07-22 13:55:00,81.1,68.2,29.98,WSW,250,1.0,3.0,65,0.00,,,0.00,WeatherCatV1.15B25,2013-07-22 17:55:00,
2013-07-22 14:00:00,81.1,69.1,29.98,West,262,3.0,7.0,67,0.00,,,0.00,WeatherCatV1.15B25,2013-07-22 18:00:00,
2013-07-22 14:05:00,81.7,69.2,29.98,SW,231,2.0,4.0,66,0.00,,,0.00,WeatherCatV1.15B25,2013-07-22 18:05:00,
2013-07-22 14:10:00,81.9,68.0,29.97,NNW,329,1.0,5.0,63,0.00,,,0.00,WeatherCatV1.15B25,2013-07-22 18:10:00,
2013-07-22 14:15:00,81.2,67.8,29.97,WNW,283,3.0,5.0,64,0.00,,,0.00,WeatherCatV1.15B25,2013-07-22 18:15:00,
2013-07-22 14:20:00,80.9,66.6,29.97,NNE,16,2.0,6.0,62,0.00,,,0.00,WeatherCatV1.15B25,2013-07-22 18:20:00,
2013-07-22 14:25:00,80.4,65.7,29.97,WNW,297,4.0,6.0,61,0.00,,,0.00,WeatherCatV1.15B25,2013-07-22 18:25:00,
2013-07-22 14:30:00,80.3,66.5,29.97,NW,326,2.0,6.0,63,0.00,,,0.00,WeatherCatV1.15B25,2013-07-22 18:30:00,
2013-07-22 14:35:00,80.7,66.0,29.97,WSW,248,1.0,5.0,61,0.00,,,0.00,WeatherCatV1.15B25,2013-07-22 18:35:00,
2013-07-22 14:40:00,80.2,65.5,29.97,East,79,3.0,8.0,61,0.00,,,0.00,WeatherCatV1.15B25,2013-07-22 18:40:00,
2013-07-22 14:45:00,80.5,65.8,29.98,WSW,245,3.0,5.0,61,0.00,,,0.00,WeatherCatV1.15B25,2013-07-22 18:45:00,
2013-07-22 14:50:00,80.5,67.2,29.97,South,171,2.0,5.0,64,0.00,,,0.00,WeatherCatV1.15B25,2013-07-22 18:50:00,
2013-07-22 14:55:00,80.5,65.8,29.97,East,89,2.0,3.0,61,0.00,,,0.00,WeatherCatV1.15B25,2013-07-22 18:55:00,
2013-07-22 15:00:00,80.8,66.5,29.97,East,93,1.0,2.0,62,0.00,,,0.00,WeatherCatV1.15B25,2013-07-22 19:00:00,
2013-07-22 15:05:00,81.3,66.1,29.97,SSW,197,1.0,3.0,60,0.00,,,0.00,WeatherCatV1.15B25,2013-07-22 19:05:00,
2013-07-22 15:10:00,80.8,65.6,29.97,North,11,0.0,4.0,60,0.00,,,0.00,WeatherCatV1.15B25,2013-07-22 19:10:00,
2013-07-22 15:15:00,79.3,65.6,29.97,NW,326,1.0,5.0,63,0.00,,,0.00,WeatherCatV1.15B25,2013-07-22 19:15:00,
2013-07-22 15:20:00,79.3,66.9,29.96,South,181,3.0,6.0,66,0.00,,,0.00,WeatherCatV1.15B25,2013-07-22 19:20:00,
2013-07-22 15:25:00,79.2,66.4,29.96,WSW,238,1.0,4.0,65,0.00,,,0.00,WeatherCatV1.15B25,2013-07-22 19:25:00,
2013-07-22 15:30:00,79.8,66.5,29.96,East,84,1.0,5.0,64,0.00,,,0.00,WeatherCatV1.15B25,2013-07-22 19:30:00,
2013-07-22 15:35:00,79.4,65.7,29.96,East,80,2.0,6.0,63,0.00,,,0.00,WeatherCatV1.15B25,2013-07-22 19:35:00,
2013-07-22 15:40:00,78.8,65.6,29.96,West,276,1.0,3.0,64,0.00,,,0.00,WeatherCatV1.15B25,2013-07-22 19:40:00,
2013-07-22 15:45:00,78.5,65.7,29.96,ENE,67,2.0,3.0,65,0.00,,,0.00,WeatherCatV1.15B25,2013-07-22 19:45:00,
2013-07-22 15:50:00,78.3,66.0,29.96,West,268,1.0,3.0,66,0.00,,,0.00,WeatherCatV1.15B25,2013-07-22 19:50:00,
2013-07-22 15:55:00,78.4,66.5,29.96,NE,50,0.0,1.0,67,0.00,,,0.00,WeatherCatV1.15B25,2013-07-22 19:55:00,
2013-07-22 16:00:00,78.0,65.3,29.96,West,274,2.0,6.0,65,0.00,,,0.00,WeatherCatV1.15B25,2013-07-22 20:00:00,
2013-07-22 16:05:00,77.3,65.5,29.96,East,89,1.0,4.0,67,0.00,,,0.00,WeatherCatV1.15B25,2013-07-22 20:05:00,
2013-07-22 16:10:00,77.1,65.7,29.96,SSW,193,4.0,4.0,68,0.00,,,0.00,WeatherCatV1.15B25,2013-07-22 20:10:00,
2013-07-22 16:15:00,77.1,66.1,29.96,WNW,302,1.0,5.0,69,0.00,,,0.00,WeatherCatV1.15B25,2013-07-22 20:15:00,
2013-07-22 16:16:00,77.1,66.1,29.95,WNW,295,3.0,4.0,69,0.00,,,0.00,WeatherCatV1.15B25,2013-07-22 20:16:00,
2013-07-22 16:21:00,76.8,66.3,29.95,ENE,66,3.0,3.0,70,0.00,,,0.00,WeatherCatV1.15B25,2013-07-22 20:21:00,
2013-07-22 16:26:00,76.5,66.0,29.95,East,85,1.0,6.0,70,0.00,,,0.00,WeatherCatV1.15B25,2013-07-22 20:26:00,
2013-07-22 16:31:00,76.2,66.1,29.95,WNW,300,0.0,7.0,71,0.00,,,0.00,WeatherCatV1.15B25,2013-07-22 20:31:00,
2013-07-22 16:36:00,76.4,66.3,29.95,NNE,33,1.0,5.0,71,0.00,,,0.00,WeatherCatV1.15B25,2013-07-22 20:36:00,
2013-07-22 16:41:00,76.4,66.3,29.95,SSW,204,0.0,6.0,71,0.00,,,0.00,WeatherCatV1.15B25,2013-07-22 20:41:00,
2013-07-22 16:46:00,76.4,66.3,29.95,SSW,205,2.0,6.0,71,0.00,,,0.00,WeatherCatV1.15B25,2013-07-22 20:46:00,
2013-07-22 16:52:00,76.3,66.2,29.95,ENE,58,8.0,8.0,71,0.00,,,0.00,WeatherCatV1.15B25,2013-07-22 20:52:00,
2013-07-22 16:57:00,75.7,66.0,29.95,East,95,2.0,4.0,72,0.00,,,0.00,WeatherCatV1.15B25,2013-07-22 20:57:00,
2013-07-22 17:02:00,75.4,66.1,29.95,East,81,2.0,3.0,73,0.00,,,0.00,WeatherCatV1.15B25,2013-07-22 21:02:00,
2013-07-22 17:07:00,75.1,66.2,29.95,South,181,1.0,2.0,74,0.00,,,0.00,WeatherCatV1.15B25,2013-07-22 21:07:00,
2013-07-22 17:12:00,74.8,66.3,29.95,NNE,13,4.0,8.0,75,0.00,,,0.00,WeatherCatV1.15B25,2013-07-22 21:12:00,
2013-07-22 17:17:00,74.6,66.5,29.95,SW,222,0.0,3.0,76,0.00,,,0.00,WeatherCatV1.15B25,2013-07-22 21:17:00,
2013-07-22 17:22:00,74.6,66.9,29.95,NW,311,2.0,3.0,77,0.00,,,0.00,WeatherCatV1.15B25,2013-07-22 21:22:00,
2013-07-22 17:27:00,74.3,66.6,29.95,South,184,0.0,4.0,77,0.00,,,0.00,WeatherCatV1.15B25,2013-07-22 21:27:00,
2013-07-22 17:32:00,74.1,66.8,29.95,ENE,58,4.0,7.0,78,0.00,,,0.00,WeatherCatV1.15B25,2013-07-22 21:32:00,
2013-07-22 17:37:00,74.2,67.3,29.95,NE,54,4.0,7.0,79,0.00,,,0.00,WeatherCatV1.15B25,2013-07-22 21:37:00,
2013-07-22 17:42:00,74.1,67.2,29.95,NNE,20,2.0,5.0,79,0.00,,,0.00,WeatherCatV1.15B25,2013-07-22 21:42:00,
2013-07-22 17:47:00,73.7,66.8,29.95,West,276,1.0,5.0,79,0.00,,,0.00,WeatherCatV1.15B25,2013-07-22 21:47:00,
2013-07-22 17:52:00,73.5,66.9,29.95,NE,37,4.0,5.0,80,0.00,,,0.00,WeatherCatV1.15B25,2013-07-22 21:52:00,
2013-07-22 17:57:00,73.2,66.6,29.95,ESE,105,1.0,4.0,80,0.00,,,0.00,WeatherCatV1.15B25,2013-07-22 21:57:00,
2013-07-22 18:02:00,73.1,66.6,29.94,SSW,208,2.0,5.0,80,0.00,,,0.00,WeatherCatV1.15B25,2013-07-22 22:02:00,
2013-07-22 18:07:00,73.0,66.5,29.94,WSW,249,2.0,6.0,80,0.00,,,0.00,WeatherCatV1.15B25,2013-07-22 22:07:00,
2013-07-22 18:12:00,73.2,66.6,29.94,WSW,252,1.0,4.0,80,0.00,,,0.00,WeatherCatV1.15B25,2013-07-22 22:12:00,
2013-07-22 18:17:00,73.2,67.0,29.94,East,91,1.0,5.0,81,0.00,,,0.00,WeatherCatV1.15B25,2013-07-22 22:17:00,
2013-07-22 18:22:00,73.1,66.9,29.94,SSW,206,4.0,4.0,81,0.00,,,0.00,WeatherCatV1.15B25,2013-07-22 22:22:00,
2013-07-22 18:27:00,72.9,66.7,29.94,NNW,330,2.0,6.0,81,0.00,,,0.00,WeatherCatV1.15B25,2013-07-22 22:27:00,
2013-07-22 18:32:00,72.7,66.9,29.94,WNW,298,1.0,4.0,82,0.00,,,0.00,WeatherCatV1.15B25,2013-07-22 22:32:00,
2013-07-22 18:37:00,72.6,66.8,29.94,SSW,198,1.0,3.0,82,0.00,,,0.00,WeatherCatV1.15B25,2013-07-22 22:37:00,
2013-07-22 18:42:00,72.6,66.8,29.94,WSW,238,2.0,6.0,82,0.00,,,0.00,WeatherCatV1.15B25,2013-07-22 22:42:00,
2013-07-22 18:47:00,72.4,66.6,29.94,ENE,61,3.0,4.0,82,0.00,,,0.00,WeatherCatV1.15B25,2013-07-22 22:47:00,
2013-07-22 18:52:00,72.3,66.5,29.94,ESE,106,1.0,5.0,82,0.00,,,0.00,WeatherCatV1.15B25,2013-07-22 22:52:00,
2013-07-22 18:57:00,72.0,66.5,29.93,NNE,27,2.0,6.0,83,0.00,,,0.00,WeatherCatV1.15B25,2013-07-22 22:57:00,
2013-07-22 19:02:00,71.8,66.3,29.94,WNW,286,0.0,6.0,83,0.00,,,0.00,WeatherCatV1.15B25,2013-07-22 23:02:00,
2013-07-22 19:07:00,71.8,66.3,29.94,WNW,285,3.0,6.0,83,0.00,,,0.00,WeatherCatV1.15B25,2013-07-22 23:07:00,
2013-07-22 19:12:00,71.6,66.5,29.94,West,274,0.0,3.0,84,0.00,,,0.00,WeatherCatV1.15B25,2013-07-22 23:12:00,
2013-07-22 19:17:00,71.5,66.7,29.93,ENE,70,2.0,3.0,85,0.00,,,0.00,WeatherCatV1.15B25,2013-07-22 23:17:00,
2013-07-22 19:22:00,71.7,66.6,29.94,West,280,0.0,2.0,84,0.00,,,0.00,WeatherCatV1.15B25,2013-07-22 23:22:00,
2013-07-22 19:27:00,71.8,66.7,29.94,SSW,203,1.0,2.0,84,0.00,,,0.00,WeatherCatV1.15B25,2013-07-22 23:27:00,
2013-07-22 19:32:00,71.8,66.7,29.94,WNW,300,1.0,2.0,84,0.00,,,0.00,WeatherCatV1.15B25,2013-07-22 23:32:00,
2013-07-22 19:33:00,71.7,66.6,29.93,East,95,0.0,2.0,84,0.00,,,0.00,WeatherCatV1.15B25,2013-07-22 23:33:00,
2013-07-22 19:34:00,71.7,66.6,29.93,NE,40,0.0,1.0,84,0.00,,,0.00,WeatherCatV1.15B25,2013-07-22 23:34:00,
2013-07-22 19:39:00,71.5,66.7,29.93,ENE,61,1.0,2.0,85,0.00,,,0.00,WeatherCatV1.15B25,2013-07-22 23:39:00,
2013-07-22 19:44:00,71.4,66.6,29.93,SW,224,1.0,3.0,85,0.00,,,0.00,WeatherCatV1.15B25,2013-07-22 23:44:00,
2013-07-22 19:49:00,71.4,66.6,29.93,ENE,78,3.0,5.0,85,0.00,,,0.00,WeatherCatV1.15B25,2013-07-22 23:49:00,
2013-07-22 19:54:00,71.4,66.6,29.93,SSE,161,0.0,2.0,85,0.00,,,0.00,WeatherCatV1.15B25,2013-07-22 23:54:00,
2013-07-22 19:59:00,71.4,66.6,29.93,NE,50,0.0,2.0,85,0.00,,,0.00,WeatherCatV1.15B25,2013-07-22 23:59:00,
2013-07-22 20:04:00,71.2,66.4,29.92,ENE,68,1.0,5.0,85,0.00,,,0.00,WeatherCatV1.15B25,2013-07-23 00:04:00,
2013-07-22 20:09:00,71.0,66.6,29.92,SW,222,1.0,5.0,86,0.00,,,0.00,WeatherCatV1.15B25,2013-07-23 00:09:00,
2013-07-22 20:14:00,70.9,66.5,29.93,WNW,293,0.0,4.0,86,0.00,,,0.00,WeatherCatV1.15B25,2013-07-23 00:14:00,
2013-07-22 20:19:00,70.9,66.8,29.93,WNW,291,1.0,3.0,87,0.00,,,0.00,WeatherCatV1.15B25,2013-07-23 00:19:00,
2013-07-22 20:24:00,70.9,66.8,29.92,SE,143,0.0,3.0,87,0.00,,,0.00,WeatherCatV1.15B25,2013-07-23 00:24:00,
2013-07-22 20:29:00,70.9,66.8,29.92,NNE,27,0.0,3.0,87,0.00,,,0.00,WeatherCatV1.15B25,2013-07-23 00:29:00,
2013-07-22 20:34:00,70.9,66.8,29.93,WNW,299,0.0,1.0,87,0.00,,,0.00,WeatherCatV1.15B25,2013-07-23 00:34:00,
2013-07-22 20:39:00,70.8,66.7,29.93,NW,305,1.0,2.0,87,0.00,,,0.00,WeatherCatV1.15B25,2013-07-23 00:39:00,
2013-07-22 20:44:00,70.7,66.6,29.93,SW,231,0.0,2.0,87,0.00,,,0.00,WeatherCatV1.15B25,2013-07-23 00:44:00,
2013-07-22 20:49:00,70.6,66.9,29.93,East,86,3.0,3.0,88,0.00,,,0.00,WeatherCatV1.15B25,2013-07-23 00:49:00,
2013-07-22 20:54:00,70.6,66.9,29.93,WNW,299,1.0,7.0,88,0.00,,,0.00,WeatherCatV1.15B25,2013-07-23 00:54:00,
2013-07-22 20:59:00,70.5,66.8,29.92,SW,235,0.0,4.0,88,0.00,,,0.00,WeatherCatV1.15B25,2013-07-23 00:59:00,
2013-07-22 21:04:00,70.5,66.8,29.92,WNW,291,2.0,3.0,88,0.00,,,0.00,WeatherCatV1.15B25,2013-07-23 01:04:00,
2013-07-22 21:09:00,70.4,67.0,29.93,NW,311,0.0,4.0,89,0.00,,,0.00,WeatherCatV1.15B25,2013-07-23 01:09:00,
2013-07-22 21:14:00,70.5,67.1,29.93,East,79,1.0,2.0,89,0.00,,,0.00,WeatherCatV1.15B25,2013-07-23 01:14:00,
2013-07-22 21:19:00,70.5,67.1,29.93,WSW,239,1.0,4.0,89,0.00,,,0.00,WeatherCatV1.15B25,2013-07-23 01:19:00,
2013-07-22 21:24:00,70.4,67.0,29.93,ENE,67,1.0,2.0,89,0.00,,,0.00,WeatherCatV1.15B25,2013-07-23 01:24:00,
2013-07-22 21:29:00,70.4,67.0,29.93,North,11,0.0,2.0,89,0.00,,,0.00,WeatherCatV1.15B25,2013-07-23 01:29:00,
2013-07-22 21:34:00,70.3,66.9,29.93,West,260,1.0,2.0,89,0.00,,,0.00,WeatherCatV1.15B25,2013-07-23 01:34:00,
2013-07-22 21:39:00,70.3,66.9,29.93,ESE,105,1.0,1.0,89,0.00,,,0.00,WeatherCatV1.15B25,2013-07-23 01:39:00,
2013-07-22 21:44:00,70.3,66.9,29.93,East,91,0.0,2.0,89,0.00,,,0.00,WeatherCatV1.15B25,2013-07-23 01:44:00,
2013-07-22 21:49:00,70.3,66.6,29.93,NW,306,2.0,3.0,88,0.00,,,0.00,WeatherCatV1.15B25,2013-07-23 01:49:00,
2013-07-22 21:54:00,70.2,66.8,29.93,SSW,206,1.0,2.0,89,0.00,,,0.00,WeatherCatV1.15B25,2013-07-23 01:54:00,
2013-07-22 21:59:00,70.3,66.9,29.93,ESE,103,1.0,2.0,89,0.00,,,0.00,WeatherCatV1.15B25,2013-07-23 01:59:00,
2013-07-22 22:04:00,70.3,66.9,29.92,WSW,238,1.0,1.0,89,0.00,,,0.00,WeatherCatV1.15B25,2013-07-23 02:04:00,
2013-07-22 22:09:00,70.3,66.9,29.92,NNW,346,1.0,3.0,89,0.00,,,0.00,WeatherCatV1.15B25,2013-07-23 02:09:00,
2013-07-22 22:14:00,70.3,66.9,29.92,WSW,252,0.0,2.0,89,0.00,,,0.00,WeatherCatV1.15B25,2013-07-23 02:14:00,
2013-07-22 22:19:00,70.3,66.9,29.92,West,267,0.0,0.0,89,0.00,,,0.00,WeatherCatV1.15B25,2013-07-23 02:19:00,
2013-07-22 22:24:00,70.3,66.9,29.92,North,351,0.0,2.0,89,0.00,,,0.00,WeatherCatV1.15B25,2013-07-23 02:24:00,
2013-07-22 22:29:00,70.2,67.1,29.92,ENE,75,0.0,2.0,90,0.00,,,0.00,WeatherCatV1.15B25,2013-07-23 02:29:00,
2013-07-22 22:34:00,70.2,67.1,29.92,WNW,296,0.0,1.0,90,0.00,,,0.00,WeatherCatV1.15B25,2013-07-23 02:34:00,
2013-07-22 22:39:00,70.2,66.8,29.92,SW,222,1.0,2.0,89,0.00,,,0.00,WeatherCatV1.15B25,2013-07-23 02:39:00,
2013-07-22 22:44:00,70.3,66.9,29.92,SW,222,0.0,4.0,89,0.00,,,0.00,WeatherCatV1.15B25,2013-07-23 02:44:00,
2013-07-22 22:49:00,70.4,67.0,29.92,WSW,238,1.0,2.0,89,0.00,,,0.00,WeatherCatV1.15B25,2013-07-23 02:49:00,
2013-07-22 22:54:00,70.4,67.0,29.91,East,81,2.0,2.0,89,0.00,,,0.00,WeatherCatV1.15B25,2013-07-23 02:54:00,
2013-07-22 22:59:00,70.4,66.7,29.91,SW,235,1.0,5.0,88,0.00,,,0.00,WeatherCatV1.15B25,2013-07-23 02:59:00,
2013-07-22 23:04:00,70.4,67.0,29.91,SE,145,0.0,0.0,89,0.00,,,0.00,WeatherCatV1.15B25,2013-07-23 03:04:00,
2013-07-22 23:09:00,70.3,66.9,29.91,West,277,0.0,1.0,89,0.00,,,0.00,WeatherCatV1.15B25,2013-07-23 03:09:00,
2013-07-22 23:14:00,70.4,67.0,29.91,NNE,19,0.0,2.0,89,0.00,,,0.00,WeatherCatV1.15B25,2013-07-23 03:14:00,
2013-07-22 23:19:00,70.3,66.9,29.91,SSW,208,0.0,1.0,89,0.00,,,0.00,WeatherCatV1.15B25,2013-07-23 03:19:00,
2013-07-22 23:24:00,70.3,66.9,29.91,East,89,0.0,1.0,89,0.00,,,0.00,WeatherCatV1.15B25,2013-07-23 03:24:00,
2013-07-22 23:29:00,70.3,66.9,29.90,WNW,291,1.0,1.0,89,0.00,,,0.00,WeatherCatV1.15B25,2013-07-23 03:29:00,
2013-07-22 23:34:00,70.3,66.9,29.90,SW,214,1.0,1.0,89,0.00,,,0.00,WeatherCatV1.15B25,2013-07-23 03:34:00,
2013-07-22 23:39:00,70.3,66.9,29.90,SW,226,0.0,1.0,89,0.00,,,0.00,WeatherCatV1.15B25,2013-07-23 03:39:00,
2013-07-22 23:44:00,70.3,67.2,29.90,East,101,0.0,1.0,90,0.00,,,0.00,WeatherCatV1.15B25,2013-07-23 03:44:00,
2013-07-22 23:49:00,70.2,67.1,29.90,ENE,58,0.0,2.0,90,0.00,,,0.00,WeatherCatV1.15B25,2013-07-23 03:49:00,
2013-07-22 23:54:00,70.1,67.0,29.90,ENE,75,1.0,3.0,90,0.00,,,0.00,WeatherCatV1.15B25,2013-07-23 03:54:00,
2013-07-22 23:59:00,70.0,66.9,29.90,NE,49,2.0,2.0,90,0.00,,,0.00,WeatherCatV1.15B25,2013-07-23 03:59:00,